Home > Weather > Fagernes > Past weeks

Flag for Norway Past Weather in Fagernes, Norway — Yesterday and Last 2 Weeks

Now
61 °F

Partly sunny.


Feels Like: 61 °F
Forecast: 49 / 57 °F
Wind: 3 mph from East

Location: Fagernes

Current Time: Jun 29, 2016 at 8:27:24 PM

Latest Report: Jun 29, 2016 at 8:00 PM


Visibility: 19 mi

Pressure: 29.73 "Hg

Humidity: 52%

Dew Point: 43 °F

Location of FagernesLocation

Past Weather in Fagernes — Graph

°F

Fagernes Temperature Yesterday

Maximum temperature yesterday: 64 °F (at 3:00 PM)
Minimum temperature yesterday: 47 °F (at 5:00 AM)
Average temperature yesterday: 57 °F

High & Low Weather Summary for the Past Weeks

 TemperatureHumidityPressure
High74 °F (Jun 23, 5:00 PM)94% (Jun 26, 8:00 PM)30.12 "Hg (Jun 26, 8:00 PM)
Low42 °F (Jun 20, 5:00 AM)27% (Jun 14, 8:00 PM)29.56 "Hg (Jun 14, 7:00 PM)
Average58 °F68%29.82 "Hg
* Reported Jun 14 7:00 PM — Jun 29 7:00 PM, Fagernes, Weather by CustomWeather, © 2016

Note: Actual official high and low records may vary slightly from our data, if they occured in-between our weather recording intervals... More about our weather records

Advertising

Fagernes Weather History for the Previous 24 Hours

Scroll right to see more
 ConditionsComfort  
Time TempWeatherWind HumidityBarometerVisibility
7:00 PM
Wed, Jun 29
62 °FRefreshingly cool.2 mph45%29.74 "HgN/A
6:00 PM62 °FRefreshingly cool.2 mph36%29.73 "HgN/A
2:00 PM62 °FPartly sunny.2 mph46%29.77 "Hg19 mi
1:00 PM60 °FRefreshingly cool.2 mph50%29.78 "HgN/A
12:00 PM60 °FRefreshingly cool.3 mph54%29.79 "HgN/A
10:00 AM59 °FCool.2 mph60%29.81 "HgN/A
9:00 AM55 °FCool.1 mph61%29.83 "HgN/A
8:00 AM53 °FCool.1 mph66%29.84 "HgN/A
7:00 AM51 °FCool.No wind70%29.86 "HgN/A
6:00 AM46 °FCool.No wind83%29.88 "HgN/A
5:00 AM46 °FCool.No wind82%29.88 "HgN/A
4:00 AM48 °FCool.1 mph78%29.88 "HgN/A
3:00 AM48 °FCool.1 mph76%29.88 "HgN/A
2:00 AM49 °FCool.No wind74%29.88 "HgN/A
1:00 AM51 °FCool.1 mph66%29.87 "HgN/A
12:00 AM53 °FCool.1 mph68%29.85 "HgN/A
11:00 PM
Tue, Jun 28
56 °FRefreshingly cool.1 mph55%29.84 "HgN/A
10:00 PM56 °FRefreshingly cool.1 mph53%29.82 "HgN/A
9:00 PM58 °FRefreshingly cool.1 mph46%29.81 "HgN/A
8:00 PM59 °FPassing clouds.2 mph49%29.80 "Hg47 mi
Weather by CustomWeather, © 2016

See weather overviewHow to use our weather pages